Change the Weather History Date:

Saturday, March 23, 2013

  Actual Average Record
Temperature  
Mean Temperature 34 °F -  
Max Temperature 35 °F 65 °F 90 °F (1951)
Min Temperature 32 °F 33 °F 14 °F (1968)
Degree Days  
Heating Degree Days 32    
Moisture  
Dew Point 34 °F    
Average Humidity 98    
Maximum Humidity 100    
Minimum Humidity 87    
Precipitation  
Precipitation 0.80 in - - ()
Sea Level Pressure  
Sea Level Pressure 29.88 in    
Wind  
Wind Speed 12 mph (NE)    
Max Wind Speed 21 mph    
Max Gust Speed 31 mph    
Visibility 4 miles    
Events Rain , Snow    
Averages and records for this station are not official NWS values.
T = Trace of Precipitation, MM = Missing Value Source: NWS Daily Summary

Daily Weather History Graph

Daily Weather History Graph

Search for Another Location

Airport or City:

Trip Planner

Search our weather history database for the weather conditions in past years. The results will help you decide how hot, cold, wet, or windy it might be!

Date:

Astronomy

Mar. 23, 2013 Rise Set
Actual Time 7:33 AM CDT 7:49 PM CDT
Civil Twilight 7:07 AM CDT 8:15 PM CDT
Nautical Twilight 6:37 AM CDT 8:45 PM CDT
Astronomical Twilight 6:06 AM CDT 9:16 PM CDT
Moon 4:22 PM CDT (3/23) 5:05 AM CDT (3/23)
Length of Visible Light 13h 07m
Length of Day
12h 16m
Waxing Gibbous, 85% of the Moon is Illuminated
Mar 23
Waxing Gibbous
Mar 27
Full
Apr 2
Last Quarter
Apr 10
New
Apr 18
First Quarter

Hourly Weather History & Observations

Time (CDT) Temp. Windchill Dew Point Humidity Pressure Visibility Wind Dir Wind Speed Gust Speed Precip Events Conditions
12:10 AM 35.6 °F 27.1 °F 32.0 °F 87% 29.90 in 10.0 mi East 12.7 mph - N/A   Overcast
12:50 AM 35.6 °F 28.6 °F 32.0 °F 87% 29.91 in 8.0 mi East 9.2 mph - N/A   Overcast
1:10 AM 35.6 °F 26.6 °F 32.0 °F 87% 29.88 in 9.0 mi East 13.8 mph - N/A   Overcast
1:30 AM 33.8 °F 24.8 °F 32.0 °F 93% 29.89 in 8.0 mi East 12.7 mph - N/A   Overcast
1:50 AM 33.8 °F 25.3 °F 32.0 °F 93% 29.88 in 7.0 mi East 11.5 mph - N/A   Overcast
2:10 AM 32.0 °F 23.0 °F 32.0 °F 100% 29.88 in 7.0 mi East 11.5 mph - N/A   Overcast
2:30 AM 32.0 °F 24.8 °F 32.0 °F 100% 29.89 in 6.0 mi ENE 8.1 mph - N/A   Overcast
2:50 AM 32.0 °F 23.6 °F 32.0 °F 100% 29.88 in 6.0 mi ENE 10.4 mph - N/A   Overcast
3:10 AM 32.0 °F 23.6 °F 32.0 °F 100% 29.87 in 5.0 mi ENE 10.4 mph - N/A   Overcast
3:30 AM 32.0 °F 22.1 °F 32.0 °F 100% 29.87 in 5.0 mi ENE 13.8 mph - N/A   Overcast
3:50 AM 32.0 °F 21.6 °F 32.0 °F 100% 29.85 in 5.0 mi ENE 15.0 mph - N/A   Overcast
4:10 AM 32.0 °F 23.0 °F 32.0 °F 100% 29.86 in 5.0 mi ENE 11.5 mph - N/A   Overcast
4:30 AM 33.8 °F 25.3 °F 32.0 °F 93% 29.86 in 5.0 mi ENE 11.5 mph - N/A   Overcast
4:50 AM 33.8 °F 25.3 °F 33.8 °F 100% 29.85 in 6.0 mi ENE 11.5 mph - N/A   Overcast
5:10 AM 35.6 °F 28.0 °F 33.8 °F 93% 29.86 in 6.0 mi NE 10.4 mph - N/A   Overcast
5:30 AM 35.6 °F 27.1 °F 33.8 °F 93% 29.87 in 7.0 mi NE 12.7 mph - N/A   Overcast
5:50 AM 35.6 °F 27.5 °F 33.8 °F 93% 29.87 in 3.0 mi NE 11.5 mph - N/A Rain Light Rain
6:30 AM 33.8 °F 26.4 °F 33.8 °F 100% 29.88 in 1.5 mi NE 9.2 mph - N/A Rain Light Rain
6:50 AM 33.8 °F 25.3 °F 33.8 °F 100% 29.87 in 1.2 mi ENE 11.5 mph - N/A Rain Light Rain
7:10 AM 33.8 °F 25.3 °F 33.8 °F 100% 29.85 in 1.5 mi ENE 11.5 mph - N/A Rain Light Rain
7:50 AM 33.8 °F 26.4 °F 33.8 °F 100% 29.88 in 2.5 mi NE 9.2 mph - N/A Rain Light Rain
8:10 AM 35.6 °F 27.5 °F 35.6 °F 100% 29.89 in 2.0 mi NE 11.5 mph - N/A Rain Light Rain
8:30 AM 35.6 °F 27.1 °F 35.6 °F 100% 29.89 in 1.5 mi NE 12.7 mph - N/A Snow Light Snow
8:50 AM 35.6 °F 27.5 °F 35.6 °F 100% 29.91 in 1.0 mi NE 11.5 mph - N/A Rain Light Rain
9:10 AM 35.6 °F 28.0 °F 35.6 °F 100% 29.91 in 1.0 mi NE 10.4 mph - N/A Rain Light Rain
9:30 AM 35.6 °F 26.6 °F 35.6 °F 100% 29.91 in 1.0 mi ENE 13.8 mph - N/A Rain Light Rain
9:50 AM 35.6 °F 27.5 °F 35.6 °F 100% 29.91 in 1.0 mi ENE 11.5 mph - N/A Rain Light Rain
10:10 AM 35.6 °F 27.5 °F 35.6 °F 100% 29.91 in 1.2 mi ENE 11.5 mph - N/A Rain Light Rain
10:30 AM 35.6 °F 27.5 °F 35.6 °F 100% 29.90 in 1.5 mi NE 11.5 mph - N/A Rain Light Rain
10:50 AM 35.6 °F 26.2 °F 35.6 °F 100% 29.89 in 1.5 mi NE 15.0 mph - N/A Rain Light Rain
11:10 AM 35.6 °F 28.0 °F 35.6 °F 100% 29.90 in 3.0 mi ENE 10.4 mph - N/A   Mostly Cloudy
11:30 AM 35.6 °F 28.0 °F 35.6 °F 100% 29.90 in 4.0 mi NE 10.4 mph - N/A   Overcast
11:50 AM 35.6 °F 27.5 °F 35.6 °F 100% 29.89 in 3.0 mi NE 11.5 mph - N/A   Overcast
12:10 PM 35.6 °F 25.9 °F 35.6 °F 100% 29.88 in 4.0 mi NE 16.1 mph - N/A   Overcast
12:50 PM 35.6 °F 26.6 °F 35.6 °F 100% 29.87 in 7.0 mi ENE 13.8 mph - N/A   Overcast
1:10 PM 35.6 °F 27.1 °F 35.6 °F 100% 29.87 in 5.0 mi NE 12.7 mph - N/A   Overcast
1:30 PM 35.6 °F 27.5 °F 35.6 °F 100% 29.86 in 4.0 mi ENE 11.5 mph - N/A   Overcast
1:50 PM 35.6 °F 28.0 °F 35.6 °F 100% 29.85 in 1.5 mi NE 10.4 mph - N/A Rain Light Rain
2:10 PM 35.6 °F 27.1 °F 35.6 °F 100% 29.84 in 1.5 mi NE 12.7 mph - N/A Rain Light Rain
2:30 PM 35.6 °F 27.1 °F 35.6 °F 100% 29.83 in 1.5 mi NNE 12.7 mph - N/A Rain Light Rain
2:50 PM 35.6 °F 26.2 °F 35.6 °F 100% 29.83 in 1.5 mi NE 15.0 mph - N/A Rain Light Rain
3:10 PM 35.6 °F 27.1 °F 35.6 °F 100% 29.82 in 1.8 mi NE 12.7 mph - N/A Rain Light Rain
3:30 PM 35.6 °F 26.6 °F 35.6 °F 100% 29.82 in 1.5 mi NE 13.8 mph 18.4 mph N/A Rain Light Rain
3:50 PM 35.6 °F 26.6 °F 35.6 °F 100% 29.82 in 1.2 mi NNE 13.8 mph - N/A Rain Light Rain
4:10 PM 35.6 °F 26.6 °F 35.6 °F 100% 29.82 in 1.0 mi NNE 13.8 mph - N/A Rain Light Rain
4:30 PM 35.6 °F 27.1 °F 35.6 °F 100% 29.82 in 1.8 mi NNE 12.7 mph - N/A Rain Light Rain
4:50 PM 35.6 °F 27.1 °F 35.6 °F 100% 29.82 in 1.8 mi NNE 12.7 mph - N/A   Overcast
5:10 PM 35.6 °F 28.0 °F 35.6 °F 100% 29.84 in 3.0 mi NNE 10.4 mph - N/A   Mostly Cloudy
5:30 PM 35.6 °F 27.1 °F 35.6 °F 100% 29.83 in 4.0 mi NNE 12.7 mph - N/A   Overcast
5:50 PM 35.6 °F 26.6 °F 35.6 °F 100% 29.82 in 6.0 mi NNE 13.8 mph - N/A   Overcast
6:10 PM 35.6 °F 26.2 °F 35.6 °F 100% 29.83 in 8.0 mi NNE 15.0 mph - N/A   Overcast
6:30 PM 35.6 °F 25.9 °F 35.6 °F 100% 29.80 in 4.0 mi NNE 16.1 mph 26.5 mph N/A   Overcast
6:50 PM 35.6 °F 25.2 °F 35.6 °F 100% 29.79 in 3.0 mi NNE 18.4 mph 31.1 mph N/A Rain Light Rain
7:10 PM 33.8 °F 22.2 °F 33.8 °F 100% 29.80 in 5.0 mi NNE 20.7 mph 31.1 mph N/A Rain Light Rain
7:30 PM 33.8 °F 23.2 °F 33.8 °F 100% 29.85 in 7.0 mi North 17.3 mph 28.8 mph N/A   Overcast
7:50 PM 35.6 °F 26.2 °F 33.8 °F 93% 29.87 in 8.0 mi North 15.0 mph 18.4 mph N/A   Overcast
8:10 PM 33.8 °F 23.5 °F 32.0 °F 93% 29.84 in 8.0 mi NNE 16.1 mph 23.0 mph N/A   Overcast
8:30 PM 33.8 °F 24.8 °F 32.0 °F 93% 29.88 in 10.0 mi NNE 12.7 mph 24.2 mph N/A   Overcast
8:50 PM 33.8 °F 25.3 °F 32.0 °F 93% 29.92 in 10.0 mi North 11.5 mph 19.6 mph N/A   Overcast
9:10 PM 32.0 °F 22.5 °F 32.0 °F 100% 29.93 in 2.0 mi North 12.7 mph - 0.01 in Snow Light Snow
9:30 PM 32.0 °F 23.0 °F 32.0 °F 100% 29.95 in 1.8 mi NNW 11.5 mph - 0.06 in Snow Light Snow
9:50 PM 32.0 °F 23.0 °F 32.0 °F 100% 29.94 in 1.0 mi NNW 11.5 mph - 0.09 in Snow Light Snow
10:10 PM 32.0 °F 22.1 °F 32.0 °F 100% 29.97 in 2.0 mi NW 13.8 mph 18.4 mph 0.01 in Snow Light Snow
10:30 PM 32.0 °F 20.1 °F 32.0 °F 100% 29.97 in 1.2 mi NNW 19.6 mph 25.3 mph 0.05 in Snow Light Snow
10:50 PM 32.0 °F 22.1 °F 32.0 °F 100% 29.98 in 1.0 mi NNW 13.8 mph 18.4 mph 0.12 in Snow Light Snow
11:10 PM 32.0 °F 21.2 °F 32.0 °F 100% 29.98 in 1.0 mi NNW 16.1 mph 23.0 mph 0.09 in Snow Light Snow
11:30 PM 32.0 °F 20.5 °F 32.0 °F 100% 29.98 in 1.0 mi North 18.4 mph 24.2 mph 0.30 in Snow Light Snow
11:50 PM 32.0 °F 20.1 °F 32.0 °F 100% 29.98 in 0.8 mi North 19.6 mph 26.5 mph 0.59 in Snow Light Snow